Location: Unspecified
(49.2170°N, 0.0000°E)
Time: 13:16:16
(UTC+00:00)

Vanguard 3 - Pass Details

Date: 27 January 2021
Orbit: 508 x 3261 km, 33.3° (Epoch: 28 February)

Event Time Altitude Azimuth Distance (km) Brightness Sun altitude
Rises 04:49:08 0° 242° (WSW) 3,586 - -27.4°
Reaches altitude 10° 04:51:39 10° 230° (SW) 2,928 - -27.0°
Exits shadow 04:54:40 23° 207° (SSW) 2,451 9.3 -26.5°
Maximum altitude 04:57:48 29° 173° (S) 2,488 9.6 -26.0°
Drops below altitude 10° 05:07:23 10° 121° (ESE) 4,678 11.8 -24.4°
Sets 05:12:42 0° 113° (ESE) 6,168 12.8 -23.5°
